Nashville, TN

4:17 AM CDT on July 21, 2019 (GMT -0500)
Nashville International

Weather History for KBNA - May, 2019

Change the Weather History Date:

Tuesday, May 14, 2019

  Actual Average Record
Temperature  
Mean Temperature 59 °F 67 °F  
Max Temperature 73 °F 78 °F 92 °F (1881)
Min Temperature 45 °F 56 °F 40 °F (1895)
Degree Days  
Heating Degree Days 6    
Month to date heating degree days 21  
Since 1 July heating degree days 3214  
Cooling Degree Days 0    
Month to date cooling degree days 52  
Year to date cooling degree days 111  
Growing Degree Days 9 (Base 50)    
Moisture  
Dew Point 43 °F    
Average Humidity 60    
Maximum Humidity 89    
Minimum Humidity 33    
Precipitation  
Precipitation 0.00 in 0.20 in 1.61 in (2014)
Month to date precipitation 1.37 2.67  
Year to date precipitation 29.25 18.47  
Sea Level Pressure  
Sea Level Pressure 30.06 in    
Wind  
Wind Speed 2 mph ()    
Max Wind Speed 12 mph    
Max Gust Speed 16 mph    
Visibility 10.0 miles    
Events      
T = Trace of Precipitation, MM = Missing Value Source: Averaged Metar Reports

Daily Weather History Graph

Daily Weather History Graph

Search for Another Location

Airport or City:

Astronomy

May. 14, 2019 Rise Set
Actual Time 5:41 AM CDT 7:44 PM CDT
Civil Twilight 5:13 AM CDT 8:13 PM CDT
Nautical Twilight 4:38 AM CDT 8:48 PM CDT
Astronomical Twilight 4:01 AM CDT 9:25 PM CDT
Moon 3:16 PM CDT (5/14) 3:22 AM CDT (5/14)
Length of Visible Light 15h 00m
Length of Day
14h 03m
Waxing Gibbous, 79% of the Moon is Illuminated
May 14
Waxing Gibbous
May 18
Full
May 26
Last Quarter
Jun 3
New
Jun 10
First Quarter

Hourly Weather History & Observations

Time (CDT) Temp. Dew Point Humidity Pressure Visibility Wind Dir Wind Speed Gust Speed Precip Events Conditions
12:53 AM 48.9 °F 44.1 °F 83% 30.03 in 10.0 mi Calm Calm - N/A   Clear
1:53 AM 48.0 °F 44.1 °F 86% 30.02 in 10.0 mi Calm Calm - N/A   Clear
2:53 AM 46.9 °F 43.0 °F 86% 30.02 in 10.0 mi Calm Calm - N/A   Clear
3:53 AM 46.0 °F 43.0 °F 89% 30.04 in 10.0 mi Calm Calm - N/A   Clear
4:53 AM 46.0 °F 42.1 °F 86% 30.05 in 10.0 mi Calm Calm - N/A   Clear
5:53 AM 46.9 °F 43.0 °F 86% 30.07 in 10.0 mi Calm Calm - N/A   Clear
6:53 AM 48.0 °F 45.0 °F 89% 30.09 in 10.0 mi Calm Calm - N/A   Partly Cloudy
7:53 AM 55.9 °F 46.0 °F 69% 30.10 in 10.0 mi North 3.5 mph - N/A   Partly Cloudy
8:53 AM 59.0 °F 46.0 °F 62% 30.11 in 10.0 mi NE 4.6 mph - N/A   Partly Cloudy
9:53 AM 63.0 °F 45.0 °F 52% 30.11 in 10.0 mi ENE 5.8 mph - N/A   Partly Cloudy
10:53 AM 62.1 °F 42.1 °F 48% 30.11 in 10.0 mi NNE 3.5 mph - N/A   Scattered Clouds
11:53 AM 68.0 °F 42.1 °F 39% 30.11 in 10.0 mi Variable 3.5 mph - N/A   Scattered Clouds
12:53 PM 66.9 °F 41.0 °F 39% 30.09 in 10.0 mi ESE 4.6 mph - N/A   Mostly Cloudy
1:53 PM 69.1 °F 42.1 °F 38% 30.07 in 10.0 mi East 5.8 mph - N/A   Scattered Clouds
2:53 PM 71.1 °F 42.1 °F 35% 30.06 in 10.0 mi NE 6.9 mph - N/A   Overcast
3:53 PM 72.0 °F 41.0 °F 33% 30.03 in 10.0 mi Calm Calm - N/A   Scattered Clouds
4:53 PM 71.1 °F 41.0 °F 34% 30.01 in 10.0 mi East 5.8 mph - N/A   Scattered Clouds
5:53 PM 71.1 °F 42.1 °F 35% 30.01 in 10.0 mi North 4.6 mph - N/A   Scattered Clouds
6:53 PM 68.0 °F 43.0 °F 40% 30.02 in 10.0 mi NNE 6.9 mph - N/A   Partly Cloudy
7:53 PM 64.9 °F 42.1 °F 43% 30.04 in 10.0 mi NNE 4.6 mph - N/A   Partly Cloudy
8:53 PM 62.1 °F 44.1 °F 52% 30.04 in 10.0 mi SSW 3.5 mph - N/A   Clear
9:53 PM 60.1 °F 45.0 °F 57% 30.06 in 10.0 mi Calm Calm - N/A   Clear
10:53 PM 55.9 °F 46.9 °F 72% 30.05 in 10.0 mi South 4.6 mph - N/A   Scattered Clouds
11:53 PM 54.0 °F 48.0 °F 80% 30.05 in 10.0 mi South 3.5 mph - N/A   Partly Cloudy